Home   Weather   Bucharest   Past weeks
Flag for Romania

Past Weather in Bucharest, Romania — Yesterday and Last 2 Weeks

Now
36 °F

Fog.


Feels Like: 33 °F
Forecast: 31 / 40 °F
Wind: 3 mph from Southwest

Location: Bucharest / Imh

Current Time: Dec 10, 2018 at 2:08:29 am

Latest Report: Dec 10, 2018 at 1:30 am


Visibility: 0 mi

Pressure: 29.71 "Hg

Humidity: 100%

Dew Point: 36 °F

Location of BucharestLocation

Past Weather in Bucharest — Graph

°F

Bucharest Temperature Yesterday

Maximum temperature yesterday: 41 °F (at 1:30 pm)
Minimum temperature yesterday: 36 °F (at 12:00 am)
Average temperature yesterday: 38 °F

High & Low Weather Summary for the Past Weeks

 TemperatureHumidityPressure
High43 °F (Nov 26, 3:30 pm)100% (Nov 25, 1:00 am)30.63 "Hg (Nov 25, 1:00 am)
Low16 °F (Dec 1, 4:00 am)47% (Nov 30, 12:30 pm)29.59 "Hg (Nov 26, 3:00 pm)
Average30 °F89%30.10 "Hg
* Reported Nov 25 1:00 am — Dec 10 1:00 am, Bucharest. Weather by CustomWeather, © 2018

Note: Actual official high and low records may vary slightly from our data, if they occured in-between our weather recording intervals... More about our weather records

Advertising

Bucharest Weather History for the Previous 24 Hours

Scroll right to see more
 ConditionsComfort  
Time TempWeatherWind HumidityBarometerVisibility
1:00 am
Mon, Dec 10
36 °FFog.3 mph93%29.71 "Hg0 mi
12:30 am36 °FFog.3 mph100%29.74 "Hg0 mi
12:00 am36 °FFog.5 mph100%29.74 "Hg1 mi
11:30 pm
Sun, Dec 9
36 °FFog.2 mph100%29.74 "Hg1 mi
11:00 pm36 °FFog.No wind100%29.71 "Hg0 mi
10:30 pm36 °FFog.No wind100%29.74 "Hg0 mi
10:00 pm36 °FFog.5 mph100%29.74 "Hg1 mi
9:30 pm37 °FFog.7 mph100%29.74 "Hg1 mi
8:30 pm37 °FFog.3 mph93%29.71 "Hg0 mi
8:00 pm37 °FFog.2 mph100%29.71 "Hg3 mi
7:30 pm39 °FFog.1 mph100%29.74 "Hg3 mi
7:00 pm39 °FFog.1 mph100%29.74 "Hg3 mi
6:30 pm39 °FFog.1 mph100%29.74 "Hg3 mi
6:00 pm39 °FLow clouds.1 mph100%29.74 "Hg3 mi
5:30 pm41 °FFog.3 mph93%29.77 "Hg3 mi
5:00 pm41 °FFog.3 mph100%29.77 "Hg3 mi
4:30 pm41 °FFog.6 mph100%29.77 "Hg2 mi
4:00 pm41 °FLow clouds.5 mph100%29.77 "Hg2 mi
3:30 pm41 °FFog.5 mph100%29.77 "Hg2 mi
3:00 pm41 °FFog.5 mph100%29.77 "Hg2 mi
2:30 pm41 °FFog.5 mph100%29.77 "Hg2 mi
2:00 pm41 °FFog.3 mph93%29.77 "Hg2 mi
1:30 pm41 °FFog.5 mph93%29.77 "Hg2 mi
1:00 pm39 °FFog.2 mph100%29.80 "Hg2 mi
12:30 pm39 °FFog.3 mph100%29.80 "Hg2 mi
12:00 pm39 °FFog.5 mph100%29.80 "Hg2 mi
11:30 am39 °FFog.6 mph100%29.80 "Hg2 mi
11:00 am37 °FLight rain. Fog.5 mph100%29.83 "Hg2 mi
10:30 am37 °FLight rain. Fog.2 mph100%29.83 "Hg2 mi
10:00 am37 °FFog.3 mph100%29.83 "Hg2 mi
9:30 am37 °FLight rain. Fog.3 mph93%29.83 "Hg2 mi
9:00 am36 °FLight rain. Fog.6 mph100%29.83 "Hg2 mi
8:30 am36 °FFog.7 mph100%29.83 "Hg2 mi
8:00 am36 °FFog.9 mph100%29.83 "Hg2 mi
7:30 am36 °FFog.9 mph100%29.83 "Hg2 mi
7:00 am36 °FFog.9 mph100%29.83 "Hg2 mi
6:30 am36 °FFog.8 mph100%29.83 "Hg2 mi
6:00 am36 °FFog.6 mph100%29.83 "Hg2 mi
5:30 am36 °FFog.6 mph100%29.83 "Hg2 mi
5:00 am36 °FFog.7 mph93%29.83 "Hg3 mi
4:30 am36 °FFog.7 mph93%29.83 "Hg3 mi
4:00 am36 °FFog.8 mph93%29.80 "Hg3 mi
3:30 am36 °FFog.7 mph100%29.80 "Hg3 mi
3:00 am36 °FFog.7 mph93%29.83 "Hg3 mi
2:30 am36 °FFog.8 mph100%29.83 "Hg3 mi
2:00 am36 °FFog.8 mph100%29.83 "Hg3 mi
Weather by CustomWeather, © 2018

See weather overview